Der Flugplatz Bonn-Hangelar

Wo wir fliegen.

Vorfeld
Blick auf das Vorfeld
Tankstelle
Blick auf die Tankstelle

Wir fliegen auf dem Gelände des Flugplatz Bonn-Hangelar, betrieben von der Flugplatzgesellschaft Hangelar mbH. Dieses befindet sich in St. Augustin, wenige Minuten von Bonn entfernt. Eine Anfahrt können Sie hier sehen bzw. sich berechnen lassen.

Der Flugplatz selbst besitzt eine lange Geschichte. Seit über 100 Jahren wird hier geflogen.

Damit dies auch weiterhin gefahrlos erfolgen kann, wird sämtlicher Flugbetrieb stets gemäß den Vorgaben der Deutschen Flugsicherung (dfs) durchgeführt. Im Zweifel ist Rücksprache mit dem Tower zu halten!

Ebenso sind die Benutzungsordnungen Teil 1 und Teil 2 des Flugplatzes hier zu finden.

Wetter Informationen

An dieser Stelle möchten wir ein paar Wetterinformationen bereitstellen.

Hier dargestellten Werte erheben keinen Anspruch auf Vollständigkeit oder Aktualität und ersetzen keine Flugvorbereitung!

Köln/Bonn

MTAR

EDDK 191020Z 14008KT 110V170 CAVOK 18/12 Q1012 NOSIG

(hier klicken für Details)

TAF

TAF EDDK 190500Z 1906/2012 13004KT CAVOK BECMG 1907/1909 13009KT TEMPO 2005/2007 RA BECMG 2010/2012 22010KT

(hier klicken für Details)

Windkarte für Europa
Windkarte

Die Wetterkarten werden mit freundlicher Unterstützung von Top-Meteo bereitgestellt.

Bodenkarte für Europa
Bodenkarte